map of UFA home
Great Circle Mapper logo
UFA - Airport
Location
City:  Ufa, Bashkortostan, Russian Federation (Russia)
ICAO / IATA:UWUU / UFA

Details
Type:Airport (Aerodrome, Airfield)
Use:Public/Civil
Latitude:5433'27"N (54.557511)
Longitude:5552'28"E (55.874417)
Datum:WGS 1984
Elevation:449 ft (137 m)
Runways:5
Longest:12340 × 197 ft (3761 × 60 m), paved

Time
Time Zone:UTC+5 (DST+6)

Weather
METAR:UWUU 021000Z 28008MPS 9999 -RA SCT015 SCT022CB OVC022 04/02 Q1003 320///60 TEMPO 2000 SHSNRA BKN007 RMK QFE740/0987 MOD ICE INC
TAF:UWUU 020757Z 0209/0309 29009G14MPS 9999 OVC015 BKN020CB 650200 530003
TEMPO 0209/0212 2500 -SHRA BKN010
TEMPO 0212/0303 1500 SHSNRA BKN004

Related Locations
Nearby:
Farthest:AAXX: 10440 mi / 16802 km
Rothera Point, Adelaide Island, AQ

Find:

   beyond  
but within

Other Information
Maps:
NOTAMs:
Links:
Sources:

  
flag of Russian Federation (Russia)   

Sectional Chart

Flight Planning
at skyvector.com

Satellite Image

Google Maps Satellite View

 

Copyright © 2004-2014 Karl L. Swartz. All rights reserved.
The Great Circle Mapper name and logo are trademarks of the Great Circle Mapper.
All other trademarks mentioned herein belong to their respective owners.
Please see credits for attibutions and further copyright information.

  Follow gcmap on Facebook Follow gcmap on Twitter

hCard Microformat

Geo Microformat